Flag for Germany Weather past 2 weeks in Wertheim, Baden-Württemberg, Germany

Now
44 °F

Overcast.


Feels Like: 39 °F
Forecast: 39 / 46 °F
Wind: 10 mph from West

Location: Wuerzburg

Current Time: Dec 22, 2014 at 3:16:16 PM

Latest Report: Dec 22, 2014 at 2:00 PM


Visibility: 38 mi

Pressure: 30.20 "Hg

Humidity: 80%

Dew point: 38 °F

Location of WertheimLocation

Historic Weather in Wertheim — Graph

°F

Wertheim temperature yesterday

Maximum temperature yesterday: 43 °F (at 1:00 PM)
Minimum temperature yesterday: 38 °F (at 4:00 AM)
Average temperature yesterday: 41 °F

Past Weeks' High & Low Weather Summary

 TemperatureHumidityPressure
High55 °F (Dec 18, 10:00 PM)100% (Dec 9, 4:00 AM)30.50 "Hg (Dec 9, 4:00 AM)
Low26 °F (Dec 9, 4:00 AM)56% (Dec 15, 2:00 PM)29.65 "Hg (Dec 12, 7:00 PM)
Average41 °F89%30.07 "Hg
* Reported Dec 7 2:00 PM — Dec 22 2:00 PM, Wertheim, Weather by CustomWeather, © 2014

Note: Actual official high and low records may vary slightly from our data, if they occured in-between our weather recording intervals... More about our weather records

Advertising

Wertheim weather history for previous 24 hours

 ConditionsComfort  
Time TempWeatherWind HumidityBarometerVisibility
2:00 PM
Dec 22
44 °FOvercast.10 mph80%30.20 "Hg37 mi
1:00 PM44 °FOvercast.8 mph81%30.23 "Hg37 mi
12:00 PM44 °FOvercast.8 mph82%30.25 "Hg37 mi
11:00 AM44 °FOvercast.6 mph83%30.26 "Hg37 mi
10:00 AM43 °FOvercast.7 mph81%30.27 "Hg37 mi
9:00 AM43 °FOvercast.7 mph81%30.26 "Hg37 mi
8:00 AM43 °FOvercast.8 mph81%30.26 "Hg37 mi
7:00 AM43 °FOvercast.9 mph79%30.26 "Hg37 mi
6:00 AM43 °FOvercast.9 mph79%30.27 "Hg37 mi
5:00 AM43 °FOvercast.8 mph78%30.27 "Hg37 mi
4:00 AM43 °FOvercast.10 mph77%30.30 "Hg34 mi
3:00 AM43 °FOvercast.10 mph77%30.31 "Hg34 mi
2:00 AM43 °FOvercast.9 mph79%30.32 "Hg34 mi
1:00 AM42 °FOvercast.7 mph82%30.34 "Hg28 mi
12:00 AM42 °FLight rain. Overcast.10 mph85%30.35 "Hg28 mi
11:00 PM
Dec 21
42 °FOvercast.13 mph83%30.35 "Hg28 mi
10:00 PM42 °FOvercast.13 mph85%30.36 "Hg28 mi
9:00 PM41 °FLight rain. Overcast.9 mph85%30.38 "Hg28 mi
8:00 PM41 °FOvercast.10 mph86%30.40 "Hg28 mi
7:00 PM41 °FOvercast.12 mph84%30.39 "Hg28 mi
6:00 PM42 °FOvercast.9 mph84%30.41 "Hg25 mi
5:00 PM41 °FLight rain. Overcast.8 mph85%30.42 "Hg22 mi
4:00 PM42 °FOvercast.6 mph82%30.43 "Hg22 mi
3:00 PM42 °FOvercast.8 mph79%30.44 "Hg22 mi
Weather by CustomWeather, © 2014

See weather overviewHow to use our weather pages